User: anonymous
Location: Melbourne
(37.8170°S, 144.9670°E)
Time: 09:40:16
(UTC+10:00)
Language:

CZ-3 R/B - Orbit

View from above orbital plane
View from above orbital plane
View from above satellite
View from above satellite

Ground track
Ground track

The orbit data is extracted from the following two-line orbital elements,

1 29517U 06048B   14211.42966167  .00032217  00000-0  10994-2 0  4201
2 29517 028.4736 185.1274 5304415 019.7554 151.9753 05.21604201102068
Epoch (UTC): 30 July 2014 10:18:42
Eccentricity: 0.5304415
inclination: 28.4736°
perigee height: 216 km
apogee height: 15116 km
right ascension of ascending node: 185.1274°
argument of perigee: 19.7554°
revolutions per day: 5.21604201
mean anomaly at epoch: 151.9753°
orbit number at epoch: 10206

The dashed part of the orbit path shows where the satellite is in the earth's shadow,  

DLR